SCP
0 0 0 0 0 0 0 0 0 0 0 0 0 0 0 0 0 0 0 0 0 0 0 0 0 0 0 0 0 0 0 0 0 0 0 0 0 0 0 0 0 0 0
0 0 0 0 0 0 0 0 0 0 0 0 0 0 0 0 0 0 0 0 0 0 0 0 0 0 0 0 0 0 0 0 0 0 0 0 0 0 0 0 0 0 0
0 0 0 0 0 0 0 0 0 0 0 0 0 0 0 0 0 0 0 0 0 0 0 0 0 0 0 0 0 0 0 0 0 0 0 0 0 0 0 0 0 0 0
0 0 0 0 0 0 0 0 0 0 0 0 0 0 0 0 0 0 0 0 0 0 0 0 0 0 0 0 0 0 0 0 0 0 0 0 0 0 0 0 0 0 0
0 0 0 0 0 0 0 0 0 0 0 0 0 0 0 0 0 0 0 0 0 0 0 0 0 0 0 0 0 0 0 0 0 0 0 0 0 0 0 0 0 0 0
0 0 0 0 0 0 0 0 0 0 0 0 0 0 0 0 0 0 0 0 0 0 0 0 0 0 0 0 0 0 0 0 0 0 0 0 0 0 0 0 0 0 0
0 0 0 0 0 0 0 0 0 0 0 0 0 0 0 0 0 0 0 0 0 0 0 0 0 0 0 0 0 0 0 0 0 0 0 0 0 0 0 0 0 0 0
0 0 0 0 0 0 0 0 0 0 0 0 0 0 0 0 0 0 0 0 0 0 0 0 0 0 0 0 0 0 0 0 0 0 0 0 0 0 0 0 0 0 0
0 0 0 0 0 0 0 0 0 0 0 0 0 0 0 0 0 0 0 0 0 0 0 0 0 0 0 0 0 0 0 0 0 0 0 0 0 0 0 0 0 0 0
0 0 0 0 0 0 0 0 0 0 0 0 0 0 0 0 0 0 0 0 0 0 0 0 0 0 0 0 0 0 0 0 0 0 0 0 0 0 0 0 0 0 0
0 0 0 0 0 0 0 0 0 0 0 0 0 0 0 0 0 0 0 0 0 0 0 0 0 0 0 0 0 0 0 0 0 0 0 0 0 0 0 0 0 0 0
0 0 0 0 0 0 0 0 0 0 0 0 0 0 0 0 0 0 0 0 0 0 0 0 0 0 0 0 0 0 0 0 0 0 0 0 0 0 0 0 0 0 0
0 0 0 0 0 0 0 0 0 0 0 0 0 0 0 0 0 0 0 0 0 0 0 0 0 0 0 0 0 0 0 0 0 0 0 0 0 0 0 0 0 0 0
0 0 0 0 0 0 0 0 0 0 0 0 0 0 0 0 0 0 0 0 0 0 0 0 0 0 0 0 0 0 0 0 0 0 0 0 0 0 0 0 0 0 0
0 0 0 0 0 0 0 0 0 0 0 0 0 0 0 0 0 0 0 0 0 0 0 0 0 0 0 0 0 0 0 0 0 0 0 0 0 0 0 0 0 0 0
0 0 0 0 0 0 0 0 0 0 0 0 0 0 0 0 0 0 0 0 0 0 0 0 0 0 0 0 0 0 0 0 0 0 0 0 0 0 0 0 0 0 0
0 0 0 0 0 0 0 0 0 0 0 0 0 0 0 0 0 0 0 0 0 0 0 0 0 0 0 0 0 0 0 0 0 0 0 0 0 0 0 0 0 0 0
0 0 0 0 0 0 0 0 0 0 0 0 0 0 0 0 0 0 0 0 0 0 0 0 0 0 0 0 0 0 0 0 0 0 0 0 0 0 0 0 0 0 0
0 0 0 0 0 0 0 0 0 0 0 0 0 0 0 0 0 0 0 0 0 0 0 0 0 0 0 0 0 0 0 0 0 0 0 0 0 0 0 0 0 0 0
0 0 0 0 0 0 0 0 0 0 0 0 0 0 0 0 0 0 0 0 0 0 0 0 0 0 0 0 0 0 0 0 0 0 0 0 0 0 0 0 0 0 0
0 0 0 0 0 0 0 0 0 0 0 0 0 0 0 0 0 0 0 0 0 0 0 0 0 0 0 0 0 0 0 0 0 0 0 0 0 0 0 0 0 0 0
0 0 0 0 0 0 0 0 0 0 0 0 0 0 0 0 0 0 0 0 0 0 0 0 0 0 0 0 0 0 0 0 0 0 0 0 0 0 0 0 0 0 0
0 0 0 0 0 0 0 0 0 0 0 0 0 0 0 0 0 0 0 0 0 0 0 0 0 0 0 0 0 0 0 0 0 0 0 0 0 0 0 0 0 0 0
0 0 0 0 0 0 0 0 0 0 0 0 0 0 0 0 0 0 0 0 0 0 0 0 0 0 0 0 0 0 0 0 0 0 0 0 0 0 0 0 0 0 0
0 0 0 0 0 0 0 0 0 0 0 0 0 0 0 0 0 0 0 0 0 0 0 0 0 0 0 0 0 0 0 0 0 0 0 0 0 0 0 0 0 0 0
0 0 0 0 0 0 0 0 0 0 0 0 0 0 0 0 0 0 0 0 0 0 0 0 0 0 0 0 0 0 0 0 0 0 0 0 0 0 0 0 0 0 0
Wind_Speed
2 3 6 7 7 7 7 8 9 10 10 11 11 12 12 12 13 13 13 12 12 11 11 11 11 11 11 11 11 11 11 10 10 10 10 10 10 11 11 11 10 7 11
4 4 8 7 7 7 7 7 8 9 10 11 11 11 11 12 12 12 11 11 11 11 11 11 10 10 10 11 10 11 10 10 10 10 10 10 10 10 11 11 10 7 11
5 4 6 8 7 7 7 7 7 8 9 10 10 10 10 11 11 11 10 10 10 10 10 10 10 10 10 10 10 10 10 10 10 10 9 6 7 10 10 11 11 11 11
6 4 5 8 8 7 7 7 7 8 9 10 10 10 10 10 10 10 10 10 10 10 9 10 10 10 10 10 10 10 10 10 9 9 5 4 5 9 10 10 10 11 11
5 3 5 9 8 7 7 7 7 7 8 9 9 9 9 9 9 9 9 9 9 9 9 9 9 9 10 9 9 9 9 9 9 7 4 4 3 8 9 10 10 10 10
4 3 4 9 8 7 7 7 7 7 7 8 8 8 8 8 9 9 8 8 8 8 9 9 9 9 9 9 9 9 9 9 7 4 4 4 3 8 10 10 10 10 10
4 3 3 8 8 7 7 6 6 6 7 7 7 7 7 7 7 8 8 7 7 7 7 8 8 8 8 8 8 8 8 8 5 4 4 4 5 8 9 10 10 10 10
4 2 2 6 7 7 7 6 6 6 6 6 6 6 6 6 6 6 7 6 7 7 7 7 8 8 7 7 7 8 8 7 5 5 4 4 7 8 9 9 10 10 11
3 3 2 2 4 6 6 6 5 5 5 4 4 5 5 5 5 5 5 5 5 5 6 7 7 7 7 7 7 7 7 8 5 4 5 4 7 8 9 9 10 10 10
3 2 2 2 2 2 2 4 4 4 4 3 3 3 4 4 3 3 3 3 3 5 5 6 6 6 6 6 7 7 7 6 4 4 3 4 8 9 9 9 10 10 10
2 1 1 2 2 2 1 2 3 3 2 2 1 2 2 1 1 1 1 2 2 3 4 5 5 5 5 5 5 6 6 2 3 3 3 6 8 9 9 8 10 10 10
3 2 2 2 2 2 2 1 1 1 1 1 1 1 1 1 1 0 1 1 2 1 2 3 4 4 3 1 2 4 2 3 3 3 3 6 7 8 8 8 9 9 9
4 4 3 3 2 2 1 1 1 1 1 1 1 1 1 1 1 1 1 1 1 1 1 0 0 1 1 1 1 1 2 2 2 2 3 7 7 7 8 8 8 8 8
4 4 3 3 3 2 1 1 1 1 1 1 1 1 1 1 1 1 1 1 1 1 0 0 0 0 1 1 2 2 2 2 2 2 3 6 6 6 7 7 7 8 8
4 4 4 4 3 2 2 1 1 1 1 0 1 1 1 1 1 1 1 1 1 1 0 0 1 0 1 1 1 2 3 3 3 3 2 5 6 6 7 7 8 9 9
5 5 4 4 4 3 2 1 1 1 1 1 1 1 1 1 1 1 1 1 1 1 0 0 0 0 0 1 1 1 2 2 2 2 2 3 5 5 6 6 7 8 8
5 5 5 5 4 4 3 2 1 1 1 1 0 1 1 1 1 1 1 1 1 1 1 1 1 1 1 1 1 1 1 1 2 2 2 1 2 4 5 6 7 7 7
5 4 4 5 5 4 3 2 1 1 1 1 0 1 1 1 1 1 1 1 1 2 2 2 1 2 1 1 1 0 1 1 1 1 1 1 1 2 4 5 5 6 6
5 5 5 4 5 4 3 2 2 2 1 1 1 1 1 1 1 2 1 1 1 2 2 1 2 1 1 1 0 0 0 1 1 1 1 1 1 1 2 3 4 4 6
4 4 5 4 4 4 3 2 1 1 1 1 1 0 1 1 2 2 1 1 1 2 2 2 2 2 1 0 1 1 1 0 0 0 1 1 1 1 1 1 1 3 4
5 5 5 5 5 4 3 2 2 1 1 0 0 0 1 1 2 2 1 1 2 2 1 2 1 2 2 1 2 2 2 2 1 1 0 0 1 1 1 1 1 1 2
6 7 6 6 6 5 4 3 2 2 1 1 0 1 1 1 2 2 2 1 1 2 2 2 2 1 1 2 1 1 2 2 2 1 0 0 1 0 1 1 1 2 2
6 7 7 7 6 5 5 3 2 2 2 1 1 0 1 1 2 2 2 2 1 1 1 1 1 1 1 1 1 2 2 1 1 1 1 1 1 0 1 1 1 1 2
7 6 5 6 5 5 6 5 5 3 2 2 1 1 1 1 2 2 2 2 1 1 1 0 1 1 2 1 1 1 1 1 1 1 2 1 1 1 1 1 1 1 1
6 5 5 5 5 5 5 7 6 4 2 1 1 2 1 1 1 1 1 1 1 1 1 1 2 2 1 1 1 1 1 1 1 1 1 2 1 1 1 1 1 1 1
5 5 5 5 4 4 5 6 6 6 5 4 3 2 1 1 1 1 2 1 1 1 1 1 1 2 1 1 1 1 1 1 1 1 1 1 2 2 1 1 1 1 1
Wind_Direction
177 179 160 140 127 117 110 106 104 106 108 110 114 119 124 129 132 136 141 143 143 141 140 140 140 141 141 141 142 142 140 142 142 144 145 145 142 141 140 140 136 132 133
156 166 156 142 131 122 115 110 107 107 113 114 114 118 122 129 133 135 138 142 143 143 142 142 142 143 143 143 144 143 144 145 147 148 149 147 146 147 148 147 144 141 140
139 151 153 144 135 126 120 114 113 111 114 119 118 120 124 131 135 137 139 141 143 144 143 145 146 146 146 146 145 146 147 147 149 151 147 141 150 155 156 154 151 149 147
139 139 147 141 136 129 121 117 114 115 117 122 123 125 128 133 137 140 142 143 145 147 148 151 151 152 150 147 146 147 148 149 150 151 141 142 152 159 160 156 155 154 153
132 134 156 142 139 130 124 119 116 117 119 123 127 129 132 137 141 144 146 147 149 150 152 152 153 155 154 152 151 153 156 154 155 149 141 145 148 159 160 160 160 159 157
131 136 163 146 144 137 129 124 121 121 124 126 128 134 138 141 146 148 150 150 151 153 155 156 156 156 158 159 158 161 163 163 158 146 146 154 161 168 168 166 165 164 162
131 132 162 148 146 143 138 135 131 129 129 132 130 132 138 139 145 151 153 154 157 158 160 163 163 162 165 166 169 172 174 172 158 155 158 167 177 179 176 173 172 170 169
124 122 141 151 149 146 141 140 139 136 133 134 137 139 138 141 145 156 159 161 162 165 170 169 169 172 173 174 178 181 184 182 177 175 173 178 187 185 181 179 176 177 176
108 111 117 137 151 155 152 148 145 143 144 143 141 140 138 141 145 152 163 170 172 171 172 172 176 178 179 182 186 188 188 188 178 175 185 185 194 192 188 187 184 182 182
98 103 117 114 113 127 153 160 156 153 149 145 144 137 133 135 139 151 167 178 186 188 180 179 184 183 181 188 193 195 195 193 184 183 188 193 198 199 198 197 192 188 186
125 115 126 122 122 119 133 168 158 157 149 149 144 133 109 78 70 136 194 199 205 199 198 200 196 194 189 193 200 201 196 182 178 189 191 201 201 202 202 201 197 194 194
177 181 166 158 149 138 168 139 79 75 59 50 38 42 46 48 43 70 291 252 242 231 215 202 195 189 189 187 205 198 178 176 183 192 198 201 204 207 205 204 200 200 202
186 188 184 174 163 156 164 122 86 59 49 38 37 44 50 45 27 24 7 349 341 333 2 341 163 157 162 163 161 162 175 184 189 196 202 204 206 210 211 209 207 205 206
179 195 184 172 166 168 154 136 114 97 70 48 34 50 61 46 26 21 14 357 7 6 24 56 80 77 130 181 171 169 180 190 190 191 199 203 205 208 209 210 208 207 209
182 191 182 169 170 168 149 156 139 137 120 73 39 38 69 77 40 32 14 9 7 16 26 71 98 103 114 156 167 176 187 188 191 192 199 206 208 205 206 211 213 215 215
186 186 175 170 172 161 162 168 155 154 148 89 54 36 73 76 60 42 22 18 9 3 24 93 125 133 118 132 140 171 189 182 185 190 198 213 216 216 218 218 218 218 217
187 183 177 171 162 164 176 182 164 162 135 121 91 58 88 100 101 81 41 24 11 29 51 69 68 74 76 77 95 111 143 163 180 193 194 207 224 230 235 232 227 222 221
177 177 177 173 166 174 175 170 147 132 132 131 96 70 85 104 105 92 63 16 18 51 62 72 67 68 53 55 53 44 104 148 188 183 175 191 222 241 244 241 234 231 231
177 172 171 170 167 173 161 144 124 118 129 131 101 72 67 86 98 98 68 19 38 58 54 61 69 76 72 51 48 69 83 137 181 186 177 182 198 224 244 255 247 246 247
169 169 171 172 168 157 138 117 100 91 93 95 101 84 96 97 98 101 82 48 61 63 50 58 74 62 63 59 56 45 40 47 122 168 212 201 203 224 232 252 255 266 266
165 175 182 178 175 156 149 156 160 186 205 201 187 110 117 112 109 104 80 65 70 74 65 73 87 72 43 37 69 39 24 31 42 23 288 211 230 242 229 238 244 254 273
184 186 188 189 181 177 177 168 161 155 167 190 244 63 93 103 105 116 116 105 81 76 58 56 74 83 41 38 83 79 20 359 5 9 349 250 278 263 244 238 234 231 245
192 193 196 194 184 182 171 136 111 84 66 59 19 12 39 110 119 118 123 113 93 95 87 53 75 116 108 36 51 119 138 227 316 339 344 2 357 351 278 264 250 256 252
202 195 188 182 177 178 166 160 160 161 173 194 183 169 67 92 114 120 123 126 121 112 111 101 96 117 130 105 40 44 110 158 161 324 339 349 1 15 350 321 305 296 286
195 184 184 175 176 173 170 172 167 161 162 148 125 115 83 62 91 109 116 117 125 122 128 108 92 95 115 137 137 115 84 61 90 158 292 328 342 331 330 317 320 315 292
184 175 172 170 184 178 175 173 171 164 158 151 150 149 139 105 76 98 120 133 142 153 156 134 112 100 106 113 117 117 140 145 174 164 205 282 303 308 319 335 350 325 310